Showing default

AISSAT 4, 68454

Orbit data source: Space-Track

AISSAT 4, 68454 is a Norwegian payload satellite in SSO that was launched on Mon, 30 Mar 2026 UTC via an FALCON 9 launch vehicle from the Air Force Western Test Range (AFWTR). Payload-class satellites include a variety of spacecraft equipped with specific instruments for various scientific and technological missions. These include communications satellites like Starlink; space stations such as the ISS; scientific satellites like the Hubble; Earth observation satellites from companies like Planet Labs, Umbra, and HawkEye 360; GPS; miniature CubeSats for education and research; and military/defense satellites.

Loading next visibility...
Identifier
68454, 2026-067AQ
Orbit
SSO
Country
Flag of NONO / NOR
Related business
None
Manufacturer
UTIAS-SFL
Mission
Operational Civil Communications
Bus & Motor
CUBESAT 6U, Unknown motor
Mass
12 kg wet, 12 kg dry
Launch date (UTC)
2026-03-30 (5 months ago)
Launch vehicle
FALCON 9
Launch site
Air Force Western Test Range (AFWTR)
Object type
Payload
Rocket body
Debris
Shape & HBR
Box, 0.2 m
Radar Cross Section
0.080 m², Medium (>0.1 m² and < 1m²)

Expand to show TLE details & history
Last TLE update: 12 hours ago

TLE from 12 hours ago
0 AISSAT 4
1 68454U 26067AQ  26249.37724153  .00003619  00000-0  17799-3 0  9998
2 68454  97.4647 206.6778 0006585 128.1117 232.0712 15.18635594 24254
Epoch: 2026-09-06T09:03Z
TLE epoch observation values (Epoch: 2026-09-06T09:03:13.668Z)
Latitude
0.00001°
Longitude
85.39761°
Altitude
515.841 km
Speed
7.604 km/s
True Right ascension
13h 46m 42s
True Declination
0° 00' 00"
Sunlit
Object was in daylight at epoch
Visualization orbit readout
Latitude
Unknown
Longitude
Unknown
Altitude
Unknown
Speed
Unknown
Apparent Right ascension
Unknown
Apparent Declination
Unknown
Sunlit
N/A
Visualization observer readout
Local Sidereal Time
12:41:27
Azimuth
Unknown
Elevation
Unknown
Doppler factor
Unknown
Orbital elements
Apogee altitude
511.467 km
Perigee altitude
502.4 km
Semi-major axis
6,885.07 km
Eccentricity
0.00066
Inclination
97.4647°
RAAN
206.6778°
Arg. of periapsis
128.1117°
True anomaly
232.01171°
Mean anomaly
232.0712°
Eccentric anomaly
232.04145°
Mean motion
3.7991 °/min
Orbital period
94.76 mins
BSTAR
0.00017799
Loading maneuver chart data...
Computing Atmospheric mass density...
Loading historical data...
Loading historical data...
Loading historical data...
Loading historical data...
Loading historical data...
Loading historical data...
Loading historical data...

Documentation

Showing up to 5 results
|